Flag for U.S.A. Weather past 2 weeks in Chula Vista, California, U.S.A.

Now
70 °F

Clear.


Feels Like: 71 °F
Forecast: 65 / 81 °F
Wind: 5 mph from Northwest

Location: Brown Field Municipal Airport

Current Time: Jul 22, 2014 at 9:43:59 PM

Latest Report: Jul 22, 2014 at 8:53 PM


Visibility: 10 mi

Pressure: 29.99 "Hg

Humidity: 79%

Dew point: 63 °F

Location of Chula VistaLocation

Historic Weather in Chula Vista — Graph

°F

Chula Vista temperature yesterday

Maximum temperature yesterday: 77 °F (at 2:53 PM)
Minimum temperature yesterday: 66 °F (at 11:53 PM)
Average temperature yesterday: 71 °F

Past Weeks' High & Low Weather Summary

 TemperatureHumidityPressure
High79 °F (Jul 8, 1:53 PM)94% (Jul 11, 11:53 PM)30.06 "Hg (Jul 11, 11:53 PM)
Low62 °F (Jul 18, 4:53 AM)50% (Jul 8, 1:53 PM)29.88 "Hg (Jul 7, 7:53 PM)
Average69 °F75%29.97 "Hg
* Reported Jul 7 7:53 PM — Jul 22 7:53 PM, Chula Vista, Weather by CustomWeather, © 2014

Note: Actual official high and low records may vary slightly from our data, if they occured in-between our weather recording intervals... More about our weather records

Advertising

Chula Vista weather history for previous 24 hours

 ConditionsComfort  
Time TempWeatherWind HumidityBarometerVisibility
7:53 PM
Jul 22
71 °FSunny.6 mph76%29.99 "Hg10 mi
6:53 PM74 °FSunny.10 mph69%29.98 "Hg10 mi
5:53 PM76 °FSunny.10 mph67%29.97 "Hg10 mi
4:53 PM76 °FSunny.12 mph67%29.98 "Hg10 mi
9:53 AM75 °FSunny.6 mph65%30.06 "Hg10 mi
8:53 AM70 °FScattered clouds.3 mph76%30.05 "Hg10 mi
7:53 AM67 °FOvercast.3 mph81%30.04 "Hg10 mi
6:53 AM66 °FOvercast.No wind84%30.03 "Hg10 mi
5:53 AM65 °FOvercast.3 mph87%30.01 "Hg10 mi
4:53 AM66 °FOvercast.3 mph84%30.01 "Hg10 mi
3:53 AM65 °FLow clouds.No wind87%30.01 "Hg10 mi
3:03 AM64 °FPassing clouds.No wind90%30.03 "Hg10 mi
2:53 AM64 °FPassing clouds.No wind90%30.01 "Hg10 mi
1:53 AM65 °FClear.5 mph87%30.01 "Hg10 mi
12:53 AM66 °FClear.5 mph84%30.00 "Hg10 mi
11:53 PM
Jul 21
66 °FClear.No wind84%30.01 "Hg10 mi
10:53 PM67 °FClear.3 mph85%30.01 "Hg10 mi
9:53 PM67 °FClear.3 mph85%30.01 "Hg10 mi
Weather by CustomWeather, © 2014

See weather overviewHow to use our weather pages